Vorticity
nan nan nan nan nan nan nan nan nan nan nan nan nan nan nan nan nan nan nan nan nan nan
nan 8 7 8 9 7 7 5 6 8 8 10 9 8 9 10 13 14 10 11 8 nan
nan 9 9 10 8 7 8 8 9 8 9 8 9 10 8 4 18 15 7 10 10 nan
nan 8 9 8 8 9 8 10 9 9 9 9 8 9 9 7 15 12 11 8 9 nan
nan 9 9 8 8 8 10 9 9 9 9 9 9 9 9 10 9 17 20 8 9 nan
nan 10 10 9 9 9 9 9 10 10 9 8 10 9 9 10 5 24 20 11 10 nan
nan 10 10 10 10 10 10 10 10 10 9 8 10 12 10 11 8 16 16 14 10 nan
nan 10 10 10 10 11 10 10 10 10 10 9 12 7 5 7 10 14 17 9 9 nan
nan 10 10 10 11 10 10 10 11 10 9 9 9 4 4 4 12 13 14 13 10 nan
nan 10 11 11 11 11 11 10 11 10 10 10 10 8 11 9 10 11 13 14 11 nan
nan 11 11 11 11 12 11 10 11 11 10 10 11 10 12 13 12 14 14 11 10 nan
nan 11 12 12 11 12 11 11 12 11 11 8 9 12 12 13 16 15 14 12 11 nan
nan 12 12 12 13 13 12 11 11 11 13 11 10 14 11 8 13 14 16 15 15 nan
nan nan nan nan nan nan nan nan nan nan nan nan nan nan nan nan nan nan nan nan nan nan
CAPE
0 0 0 0 1 5 2 5 3 8 5 3 4 0 0 0 45 42 4 0 0 3
0 0 0 0 0 3 3 2 0 8 7 7 7 5 0 0 32 26 0 0 1 1
0 0 0 0 0 0 0 0 1 10 10 9 8 7 4 0 3 66 7 0 0 0
0 0 0 0 0 1 1 0 1 1 9 12 8 7 10 3 0 45 34 0 0 0
0 0 1 1 0 0 2 3 3 5 8 13 6 9 7 11 10 28 60 15 2 1
0 0 0 1 2 3 3 3 4 7 9 12 8 14 8 8 12 9 87 39 7 3
0 1 3 3 4 6 6 6 5 7 8 15 11 13 14 3 16 0 58 62 55 31
1 2 2 6 7 7 10 9 9 9 9 9 13 17 12 5 19 0 38 2 4 34
4 5 7 8 10 11 12 10 10 11 14 6 11 13 21 25 24 2 64 25 7 13
8 10 10 11 13 14 13 11 13 13 13 6 6 17 29 31 17 19 51 23 9 18
9 9 11 12 13 12 15 7 9 6 5 6 12 14 27 29 13 23 37 13 19 13
7 8 9 10 8 10 13 10 6 8 6 6 10 10 23 23 15 31 20 11 8 6
7 9 13 10 8 9 12 12 8 6 9 10 12 12 26 21 18 19 18 9 1 0
5 7 6 7 7 7 8 9 11 11 6 11 13 7 14 21 15 7 4 0 0 0